This is the latest recevied weather packets stored in our database for station/object NEWPRT. If no packets are shown the sender has not sent any weather packets the latest 10 day(s).
| Time | Temp. | Humidity | Pressure | Rain* | Wind** | Luminosity | Snow |
|---|---|---|---|---|---|---|---|
| 1777761635 | - | 72% | 1014.9 hPa | 0 mm | - | - | - |
| 1777761313 | - | 68% | 1015 hPa | 0 mm | - | - | - |
| 1777760989 | - | 70% | 1015.2 hPa | 0 mm | - | - | - |
| 1777760666 | - | 67% | 1015.2 hPa | 0 mm | - | - | - |
| 1777760343 | - | 66% | 1015.3 hPa | 0 mm | - | - | - |
| 1777760020 | - | 65% | 1015.3 hPa | 0 mm | - | - | - |
| 1777759697 | - | 64% | 1015.4 hPa | 0 mm | - | - | - |
| 1777759375 | - | 64% | 1015.5 hPa | 0 mm | - | - | - |
| 1777759051 | - | 63% | 1015.4 hPa | 0 mm | - | - | - |
| 1777758728 | - | 64% | 1015.4 hPa | 0 mm | - | - | - |
| 1777758406 | - | 64% | 1015.4 hPa | 0 mm | - | - | - |
| 1777758082 | - | 63% | 1015.5 hPa | 0 mm | - | - | - |
| 1777757760 | - | 63% | 1015.3 hPa | 0 mm | - | - | - |
| 1777757436 | - | 64% | 1015.5 hPa | 0 mm | - | - | - |
| 1777757114 | - | 66% | 1015.6 hPa | 0 mm | - | - | - |
| 1777756790 | - | 69% | 1015.7 hPa | 0 mm | - | - | - |
| 1777756467 | - | 69% | 1015.8 hPa | 0 mm | - | - | - |
| 1777756144 | - | 72% | 1015.8 hPa | 0 mm | - | - | - |
| 1777755821 | - | 71% | 1015.5 hPa | 0 mm | - | - | - |
| 1777755498 | - | 72% | 1015.7 hPa | 0 mm | - | - | - |
| 1777755175 | - | 71% | 1015.8 hPa | 0 mm | - | - | - |
| 1777754852 | - | 71% | 1015.8 hPa | 0 mm | - | - | - |
| 1777754529 | - | 70% | 1015.8 hPa | 0 mm | - | - | - |
| 1777754206 | - | 69% | 1015.9 hPa | 0 mm | - | - | - |
| 1777753883 | - | 64% | 1016 hPa | 0 mm | - | - | - |
* Rain latest hour (hover to see other rain measurements)
** Current wind speed in m/s (hover to see current wind gust speed)